Time,TemperatureF,DewpointF,PressureIn,WindDirection,WindDirectionDegrees,WindSpeedMPH,WindSpeedGustMPH,Humidity,HourlyPrecipIn,Conditions,Clouds,dailyrainin,SoftwareType,DateUTC
2013-06-06 09:45:00,62.7,59.9,30.01,East,90,0.0,0.0,90,0.00,,,0.00,WUHU216HW,2013-06-06 07:45:00,
2013-06-06 09:50:00,62.9,60.0,30.02,ESE,113,0.0,0.0,90,0.00,,,0.00,WUHU216HW,2013-06-06 07:50:00,
2013-06-06 09:55:00,63.1,60.2,30.02,SSW,203,0.0,0.0,90,0.00,,,0.00,WUHU216HW,2013-06-06 07:55:00,
2013-06-06 10:00:00,63.3,60.4,30.02,ESE,113,0.0,0.0,90,0.00,,,0.00,WUHU216HW,2013-06-06 08:00:00,
2013-06-06 10:05:00,63.3,60.4,30.02,SE,135,0.0,0.0,90,0.00,,,0.00,WUHU216HW,2013-06-06 08:05:00,
2013-06-06 10:10:00,63.1,60.2,30.02,ESE,113,0.0,2.2,90,0.00,,,0.00,WUHU216HW,2013-06-06 08:10:00,
2013-06-06 10:15:00,63.5,60.6,30.02,ENE,68,0.0,2.2,90,0.00,,,0.00,WUHU216HW,2013-06-06 08:15:00,
2013-06-06 10:20:00,63.8,60.6,30.02,SE,135,0.0,0.0,89,0.00,,,0.00,WUHU216HW,2013-06-06 08:20:00,
2013-06-06 10:25:00,64.2,60.9,30.02,SE,135,0.0,0.0,89,0.00,,,0.00,WUHU216HW,2013-06-06 08:25:00,
2013-06-06 10:30:00,64.5,61.3,30.02,SSW,203,0.0,1.5,89,0.00,,,0.00,WUHU216HW,2013-06-06 08:30:00,
2013-06-06 10:35:00,64.9,61.6,30.03,ENE,68,0.0,1.5,89,0.00,,,0.00,WUHU216HW,2013-06-06 08:35:00,
2013-06-06 10:40:00,65.3,61.9,30.03,North,0,0.0,0.0,89,0.00,,,0.00,WUHU216HW,2013-06-06 08:40:00,
2013-06-06 10:45:00,65.1,61.4,30.03,ESE,113,0.0,0.0,88,0.00,,,0.00,WUHU216HW,2013-06-06 08:45:00,
2013-06-06 10:50:00,64.9,60.9,30.03,East,90,0.0,3.1,87,0.00,,,0.00,WUHU216HW,2013-06-06 08:50:00,
2013-06-06 10:55:00,64.9,60.9,30.04,ESE,113,0.0,3.1,87,0.00,,,0.00,WUHU216HW,2013-06-06 08:55:00,
2013-06-06 11:00:00,65.3,61.3,30.04,SE,135,0.0,1.3,87,0.00,,,0.00,WUHU216HW,2013-06-06 09:00:00,
2013-06-06 11:05:00,65.3,61.3,30.04,East,90,0.0,0.0,87,0.00,,,0.00,WUHU216HW,2013-06-06 09:05:00,
2013-06-06 11:10:00,65.3,61.3,30.04,NE,45,0.0,2.6,87,0.00,,,0.00,WUHU216HW,2013-06-06 09:10:00,
2013-06-06 11:15:00,65.3,60.9,30.04,South,180,0.0,2.6,86,0.00,,,0.00,WUHU216HW,2013-06-06 09:15:00,
2013-06-06 20:35:00,60.6,57.0,29.98,WNW,293,0.0,0.0,88,0.00,,,0.00,WUHU216HW,2013-06-06 18:35:00,
2013-06-06 20:45:00,60.0,56.5,29.99,SE,135,0.0,0.0,88,0.00,,,0.13,WUHU216HW,2013-06-06 18:45:00,
2013-06-06 20:50:00,59.9,56.6,30.01,SSE,158,0.0,0.0,89,0.00,,,0.13,WUHU216HW,2013-06-06 18:50:00,
2013-06-06 20:55:00,59.5,56.3,30.02,WNW,293,0.0,0.0,89,0.00,,,0.13,WUHU216HW,2013-06-06 18:55:00,
2013-06-06 21:00:00,59.3,56.1,30.03,West,270,0.0,0.0,89,0.00,,,0.13,WUHU216HW,2013-06-06 19:00:00,
2013-06-06 21:05:00,59.1,55.9,30.04,SSW,203,0.0,0.0,89,0.00,,,0.13,WUHU216HW,2013-06-06 19:05:00,
2013-06-06 21:10:00,59.0,55.7,30.04,WSW,248,0.0,0.0,89,0.00,,,0.13,WUHU216HW,2013-06-06 19:10:00,